Milwaukee, WI

8:02 PM CST on November 11, 2019 (GMT -0600)
Gen Mitchell International

Weather History for KMKE - September, 2019

Change the Weather History Date:

Thursday, September 19, 2019

  Actual Average Record
Temperature  
Mean Temperature 72 °F 62 °F  
Max Temperature 82 °F 70 °F 91 °F (1895)
Min Temperature 62 °F 54 °F 35 °F (1956)
Degree Days  
Heating Degree Days 0 5  
Month to date heating degree days 8 51  
Since 1 July heating degree days 10 77  
Cooling Degree Days 7 2  
Month to date cooling degree days 73 58  
Year to date cooling degree days 679 623  
Growing Degree Days 22 (Base 50)    
Moisture  
Dew Point 61 °F    
Average Humidity 70    
Maximum Humidity 84    
Minimum Humidity 54    
Precipitation  
Precipitation T in 0.11 in 1.44 in (1997)
Month to date precipitation 5.06 2.00  
Year to date precipitation 33.47 26.18  
Snow  
Snow 0.00 in 0.00 in 0.00 in (2018)
Month to date snowfall 0.0 0.0  
Since 1 July snowfall 0.0 0.0  
Since 1 September snowfall 0.0 0.0  
Snow Depth 0.00 in    
Sea Level Pressure  
Sea Level Pressure 30.06 in    
Wind  
Wind Speed 5 mph ()    
Max Wind Speed 13 mph    
Max Gust Speed 17 mph    
Visibility 10.0 miles    
Events Rain    
T = Trace of Precipitation, MM = Missing Value Source: Averaged Metar Reports

Daily Weather History Graph

Daily Weather History Graph

Search for Another Location

Airport or City:

Astronomy

Sep. 19, 2019 Rise Set
Actual Time 6:35 AM CDT 6:54 PM CDT
Civil Twilight 6:07 AM CDT 7:23 PM CDT
Nautical Twilight 5:33 AM CDT 7:56 PM CDT
Astronomical Twilight 4:59 AM CDT 8:30 PM CDT
Moon 9:56 PM CDT (9/19) 11:45 AM CDT (9/19)
Length of Visible Light 13h 15m
Length of Day
12h 19m
Waning Gibbous, 74% of the Moon is Illuminated
Sep 19
Waning Gibbous
Sep 21
Last Quarter
Sep 28
New
Oct 5
First Quarter
Oct 13
Full

Hourly Weather History & Observations

Time (CDT) Temp. Heat Index Dew Point Humidity Pressure Visibility Wind Dir Wind Speed Gust Speed Precip Events Conditions
12:52 AM 69.1 °F - 59.0 °F 70% 30.07 in 10.0 mi SSE 8.1 mph - N/A   Scattered Clouds
1:52 AM 69.1 °F - 59.0 °F 70% 30.07 in 10.0 mi South 4.6 mph - N/A   Scattered Clouds
2:52 AM 66.0 °F - 59.0 °F 78% 30.06 in 10.0 mi South 5.8 mph - N/A   Scattered Clouds
3:52 AM 63.0 °F - 57.9 °F 84% 30.05 in 10.0 mi SE 4.6 mph - N/A   Partly Cloudy
4:52 AM 64.0 °F - 57.9 °F 80% 30.05 in 10.0 mi SSE 6.9 mph - N/A   Partly Cloudy
5:52 AM 64.9 °F - 57.0 °F 75% 30.04 in 10.0 mi South 5.8 mph - N/A   Partly Cloudy
6:52 AM 63.0 °F - 57.0 °F 81% 30.06 in 10.0 mi SSE 5.8 mph - N/A   Scattered Clouds
7:52 AM 66.9 °F - 57.9 °F 73% 30.08 in 10.0 mi South 5.8 mph - N/A   Mostly Cloudy
8:52 AM 69.1 °F - 57.9 °F 68% 30.09 in 10.0 mi SSW 9.2 mph - N/A   Mostly Cloudy
9:52 AM 73.0 °F - 60.1 °F 64% 30.10 in 10.0 mi SSW 5.8 mph - N/A   Mostly Cloudy
10:52 AM 75.0 °F - 60.1 °F 60% 30.11 in 10.0 mi WSW 5.8 mph - N/A   Mostly Cloudy
11:52 AM 77.0 °F - 61.0 °F 58% 30.10 in 10.0 mi West 8.1 mph - N/A   Mostly Cloudy
12:52 PM 78.1 °F - 63.0 °F 60% 30.08 in 10.0 mi NW 3.5 mph - N/A   Mostly Cloudy
1:52 PM 81.0 °F 82.2 °F 63.0 °F 54% 30.06 in 10.0 mi Calm Calm - N/A   Mostly Cloudy
2:52 PM 79.0 °F - 64.9 °F 62% 30.04 in 10.0 mi ESE 9.2 mph - N/A   Mostly Cloudy
3:52 PM 78.1 °F - 64.0 °F 62% 30.04 in 10.0 mi SE 9.2 mph - N/A   Mostly Cloudy
4:52 PM 75.0 °F - 64.0 °F 69% 30.02 in 10.0 mi ESE 9.2 mph - 0.00 in Rain Light Rain
5:52 PM 75.9 °F - 62.1 °F 62% 30.03 in 10.0 mi Variable 3.5 mph - 0.00 in   Mostly Cloudy
6:52 PM 73.0 °F - 62.1 °F 68% 30.04 in 10.0 mi ESE 5.8 mph - N/A   Mostly Cloudy
7:52 PM 71.1 °F - 62.1 °F 73% 30.06 in 10.0 mi Calm Calm - N/A   Mostly Cloudy
8:52 PM 71.1 °F - 62.1 °F 73% 30.07 in 10.0 mi Calm Calm - N/A   Overcast
9:52 PM 71.1 °F - 63.0 °F 75% 30.08 in 10.0 mi Calm Calm - N/A   Overcast
11:52 PM 69.1 °F - 63.0 °F 81% 30.06 in 10.0 mi Calm Calm - N/A   Mostly Cloudy